Home > Time Zones > World Clock > Weather > U.S.A. > Napa > Past weeks

Flag for U.S.A. Weather past 2 weeks in Napa, California, U.S.A.

Now
44 °F

Clear.


Feels Like: 44 °F
Forecast: 44 / 79 °F
Wind: No wind

Location: Napa County Airport

Current Time: Mar 29, 2015 at 4:27:52 AM

Latest Report: Mar 29, 2015 at 3:54 AM


Visibility: 10 mi

Pressure: 30.08 "Hg

Humidity: 96%

Dew point: 43 °F

Location of NapaLocation

Historic Weather in Napa — Graph

°F

Napa temperature yesterday

Maximum temperature yesterday: 77 °F (at 3:54 PM)
Minimum temperature yesterday: 40 °F (at 4:57 AM)
Average temperature yesterday: 56 °F

Past Weeks' High & Low Weather Summary

 TemperatureHumidityPressure
High79 °F (Mar 26, 1:54 PM)100% (Mar 19, 6:54 AM)30.28 "Hg (Mar 19, 6:54 AM)
Low38 °F (Mar 20, 5:04 AM)39% (Mar 26, 1:54 PM)29.93 "Hg (Mar 14, 6:54 PM)
Average57 °F78%30.09 "Hg
* Reported Mar 14 2:54 AM — Mar 29 2:54 AM, Napa, Weather by CustomWeather, © 2015

Note: Actual official high and low records may vary slightly from our data, if they occured in-between our weather recording intervals... More about our weather records

Advertising

Napa weather history for previous 24 hours

 ConditionsComfort  
Time TempWeatherWind HumidityBarometerVisibility
2:54 AM
Sun, Mar 29
44 °FFog.3 mph96%30.08 "Hg4 mi
1:54 AM46 °FClear.No wind89%30.08 "Hg10 mi
12:54 AM49 °FClear.No wind90%30.08 "Hg10 mi
11:54 PM
Sat, Mar 28
51 °FClear.5 mph80%30.08 "Hg10 mi
10:54 PM51 °FClear.7 mph86%30.07 "Hg10 mi
9:54 PM55 °FClear.6 mph77%30.06 "Hg10 mi
8:54 PM55 °FClear.8 mph77%30.04 "Hg10 mi
7:54 PM62 °FSunny.6 mph70%30.03 "Hg10 mi
6:54 PM66 °FSunny.7 mph65%30.02 "Hg10 mi
5:54 PM72 °FSunny.8 mph46%30.02 "Hg10 mi
4:54 PM75 °FSunny.15 mph40%30.03 "Hg10 mi
3:54 PM77 °FSunny.12 mph42%30.04 "Hg10 mi
2:54 PM75 °FSunny.10 mph50%30.07 "Hg10 mi
1:54 PM72 °FSunny.9 mph52%30.10 "Hg10 mi
12:54 PM69 °FSunny.7 mph51%30.13 "Hg10 mi
11:54 AM66 °FSunny.6 mph52%30.15 "Hg10 mi
10:54 AM61 °FSunny.5 mph78%30.16 "Hg10 mi
9:54 AM56 °FSunny.No wind84%30.17 "Hg10 mi
8:54 AM50 °FSunny.No wind96%30.16 "Hg10 mi
7:54 AM44 °FClear.3 mph100%30.14 "Hg10 mi
6:54 AM45 °FClear.No wind100%30.13 "Hg10 mi
5:54 AM41 °FClear.3 mph100%30.12 "Hg10 mi
4:57 AM40 °FFog.No wind100%30.15 "Hg3 mi
4:04 AM42 °FFog.No wind96%30.14 "Hg2 mi
Weather by CustomWeather, © 2015

See weather overviewHow to use our weather pages